Change the Weather History Date:

Tuesday, April 8, 2014

  Actual Average Record
Temperature  
Mean Temperature 50 °F -  
Max Temperature 60 °F 66 °F 85 °F (1943)
Min Temperature 42 °F 44 °F 23 °F (2007)
Degree Days  
Heating Degree Days 14    
Moisture  
Dew Point 42 °F    
Average Humidity 77    
Maximum Humidity 93    
Minimum Humidity 58    
Precipitation  
Precipitation 0.04 in - - ()
Sea Level Pressure  
Sea Level Pressure 29.80 in    
Wind  
Wind Speed 8 mph (WSW)    
Max Wind Speed 15 mph    
Max Gust Speed -    
Visibility 10 miles    
Events Thunderstorm    
Averages and records for this station are not official NWS values.
T = Trace of Precipitation, MM = Missing Value Source: NWS Daily Summary

Daily Weather History Graph

Daily Weather History Graph

Search for Another Location

Airport or City:

Trip Planner

Search our weather history database for the weather conditions in past years. The results will help you decide how hot, cold, wet, or windy it might be!

Date:

Astronomy

Apr. 08, 2014 Rise Set
Actual Time 6:25 AM CDT 7:20 PM CDT
Civil Twilight 5:58 AM CDT 7:46 PM CDT
Nautical Twilight 5:27 AM CDT 8:18 PM CDT
Astronomical Twilight 4:54 AM CDT 8:51 PM CDT
Moon 1:19 PM CDT (4/8) 2:32 AM CDT (4/8)
Length of Visible Light 13h 48m
Length of Day
12h 54m
Waxing Gibbous, 63% of the Moon is Illuminated
Apr 8
Waxing Gibbous
Apr 15
Full
Apr 22
Last Quarter
Apr 29
New
May 6
First Quarter

Hourly Weather History & Observations

Time (CDT) Temp. Windchill Dew Point Humidity Pressure Visibility Wind Dir Wind Speed Gust Speed Precip Events Conditions
12:15 AM 44.6 °F 40.2 °F 39.2 °F 81% 29.77 in 10.0 mi West 8.1 mph - N/A   Overcast
12:35 AM 44.6 °F 40.2 °F 39.2 °F 81% 29.78 in 10.0 mi WSW 8.1 mph - N/A   Scattered Clouds
12:55 AM 42.8 °F 39.3 °F 39.2 °F 87% 29.78 in 10.0 mi SW 5.8 mph - N/A   Partly Cloudy
1:15 AM 42.8 °F 38.6 °F 39.2 °F 87% 29.77 in 10.0 mi SW 6.9 mph - N/A   Scattered Clouds
1:35 AM 44.6 °F 39.7 °F 39.2 °F 81% 29.78 in 10.0 mi SW 9.2 mph - N/A   Overcast
1:55 AM 44.6 °F 40.7 °F 39.2 °F 81% 29.77 in 10.0 mi SW 6.9 mph - N/A   Overcast
2:15 AM 44.6 °F 40.7 °F 39.2 °F 81% 29.76 in 10.0 mi SW 6.9 mph - N/A   Overcast
2:35 AM 44.6 °F 40.7 °F 39.2 °F 81% 29.76 in 10.0 mi SW 6.9 mph - N/A   Overcast
2:55 AM 44.6 °F 40.7 °F 39.2 °F 81% 29.76 in 10.0 mi SW 6.9 mph - N/A   Overcast
3:15 AM 44.6 °F 41.4 °F 39.2 °F 81% 29.76 in 10.0 mi SW 5.8 mph - N/A   Overcast
3:35 AM 44.6 °F 40.7 °F 41.0 °F 87% 29.75 in 10.0 mi WSW 6.9 mph - N/A   Overcast
3:55 AM 44.6 °F 40.2 °F 41.0 °F 87% 29.75 in 10.0 mi WSW 8.1 mph - N/A   Overcast
4:15 AM 44.6 °F 41.4 °F 39.2 °F 81% 29.75 in 10.0 mi WSW 5.8 mph - N/A   Mostly Cloudy
4:35 AM 44.6 °F 39.2 °F 39.2 °F 81% 29.76 in 10.0 mi WSW 10.4 mph - N/A   Mostly Cloudy
4:55 AM 44.6 °F 38.4 °F 39.2 °F 81% 29.75 in 10.0 mi WSW 12.7 mph - N/A   Mostly Cloudy
5:15 AM 44.6 °F 39.2 °F 39.2 °F 81% 29.76 in 10.0 mi WSW 10.4 mph - N/A   Overcast
5:35 AM 44.6 °F 39.7 °F 39.2 °F 81% 29.76 in 10.0 mi WSW 9.2 mph - N/A   Overcast
5:55 AM 44.6 °F 39.2 °F 39.2 °F 81% 29.77 in 10.0 mi WSW 10.4 mph - N/A   Overcast
6:15 AM 44.6 °F 39.7 °F 39.2 °F 81% 29.77 in 10.0 mi SW 9.2 mph - N/A   Overcast
6:35 AM 44.6 °F 39.7 °F 39.2 °F 81% 29.77 in 10.0 mi WSW 9.2 mph - N/A   Overcast
6:55 AM 44.6 °F 39.2 °F 39.2 °F 81% 29.77 in 10.0 mi WSW 10.4 mph - N/A   Overcast
7:15 AM 44.6 °F 38.8 °F 39.2 °F 81% 29.77 in 10.0 mi WSW 11.5 mph - N/A   Overcast
7:35 AM 46.4 °F 41.1 °F 41.0 °F 81% 29.77 in 10.0 mi WSW 11.5 mph - N/A   Overcast
7:55 AM 46.4 °F 41.9 °F 41.0 °F 81% 29.77 in 10.0 mi WSW 9.2 mph - N/A   Overcast
8:15 AM 46.4 °F 41.9 °F 42.8 °F 87% 29.78 in 10.0 mi WSW 9.2 mph - N/A   Scattered Clouds
8:35 AM 48.2 °F - 42.8 °F 82% 29.77 in 10.0 mi WSW 10.4 mph - N/A   Clear
8:55 AM 50.0 °F - 42.8 °F 76% 29.78 in 10.0 mi West 9.2 mph - N/A   Clear
9:15 AM 51.8 °F - 44.6 °F 76% 29.78 in 10.0 mi West 9.2 mph - N/A   Scattered Clouds
9:35 AM 51.8 °F - 44.6 °F 76% 29.78 in 10.0 mi West 9.2 mph - N/A   Overcast
9:55 AM 53.6 °F - 44.6 °F 72% 29.78 in 10.0 mi West 8.1 mph - N/A   Mostly Cloudy
10:15 AM 55.4 °F - 44.6 °F 67% 29.78 in 10.0 mi WNW 4.6 mph - N/A   Mostly Cloudy
10:55 AM 53.6 °F - 44.6 °F 72% 29.79 in 10.0 mi West 8.1 mph - N/A   Overcast
11:15 AM 53.6 °F - 44.6 °F 72% 29.80 in 10.0 mi WSW 6.9 mph - N/A   Mostly Cloudy
11:35 AM 53.6 °F - 44.6 °F 72% 29.80 in 10.0 mi West 8.1 mph - N/A   Overcast
11:55 AM 53.6 °F - 44.6 °F 72% 29.80 in 10.0 mi West 8.1 mph - N/A   Mostly Cloudy
12:15 PM 55.4 °F - 46.4 °F 72% 29.79 in 10.0 mi NW 8.1 mph - N/A   Overcast
12:35 PM 55.4 °F - 46.4 °F 72% 29.79 in 10.0 mi NW 6.9 mph - N/A   Overcast
12:55 PM 55.4 °F - 46.4 °F 72% 29.79 in 10.0 mi NW 9.2 mph - N/A   Mostly Cloudy
1:15 PM 55.4 °F - 46.4 °F 72% 29.79 in 10.0 mi NNW 9.2 mph - N/A   Overcast
1:35 PM 55.4 °F - 46.4 °F 72% 29.79 in 10.0 mi NW 5.8 mph - N/A   Overcast
1:55 PM 55.4 °F - 46.4 °F 72% 29.78 in 10.0 mi WNW 11.5 mph - N/A   Overcast
2:15 PM 57.2 °F - 46.4 °F 67% 29.78 in 10.0 mi NW 9.2 mph - N/A   Mostly Cloudy
2:35 PM 57.2 °F - 46.4 °F 67% 29.77 in 10.0 mi NW 4.6 mph - N/A   Clear
2:55 PM 59.0 °F - 46.4 °F 63% 29.76 in 10.0 mi West 6.9 mph - N/A   Clear
3:15 PM 59.0 °F - 46.4 °F 63% 29.76 in 10.0 mi NNE 5.8 mph - N/A   Mostly Cloudy
3:35 PM 57.2 °F - 44.6 °F 63% 29.76 in 10.0 mi North 6.9 mph - N/A   Overcast
3:55 PM 53.6 °F - 42.8 °F 67% 29.77 in 10.0 mi WNW 15.0 mph - N/A Thunderstorm Thunderstorm
4:15 PM 50.0 °F - 42.8 °F 76% 29.78 in 10.0 mi West 15.0 mph - N/A   Overcast
4:35 PM 51.8 °F - 44.6 °F 76% 29.79 in 10.0 mi Calm Calm - 0.01 in   Overcast
4:55 PM 51.8 °F - 44.6 °F 76% 29.81 in 8.0 mi West 4.6 mph - 0.02 in Thunderstorm Overcast
5:15 PM 51.8 °F - 42.8 °F 71% 29.81 in 10.0 mi South 3.5 mph - 0.01 in   Overcast
5:35 PM 51.8 °F - 44.6 °F 76% 29.81 in 10.0 mi SSW 4.6 mph - 0.01 in   Overcast
5:55 PM 53.6 °F - 44.6 °F 72% 29.82 in 10.0 mi SW 6.9 mph - 0.01 in   Mostly Cloudy
6:15 PM 53.6 °F - 44.6 °F 72% 29.82 in 10.0 mi SW 6.9 mph - N/A   Scattered Clouds
6:35 PM 53.6 °F - 46.4 °F 77% 29.83 in 10.0 mi SW 5.8 mph - N/A   Mostly Cloudy
6:55 PM 53.6 °F - 46.4 °F 77% 29.84 in 10.0 mi SW 6.9 mph - N/A   Overcast
7:15 PM 51.8 °F - 46.4 °F 82% 29.84 in 10.0 mi SW 9.2 mph - 0.01 in   Overcast
7:55 PM 51.8 °F - 44.6 °F 76% 29.86 in 10.0 mi SW 8.1 mph - 0.01 in   Partly Cloudy
8:15 PM 48.2 °F - 44.6 °F 87% 29.87 in 10.0 mi SW 6.9 mph - N/A   Clear
8:35 PM 48.2 °F - 44.6 °F 87% 29.88 in 10.0 mi SW 5.8 mph - N/A   Clear
8:55 PM 48.2 °F - 44.6 °F 87% 29.89 in 10.0 mi WSW 5.8 mph - N/A   Clear
9:15 PM 46.4 °F 44.3 °F 42.8 °F 87% 29.89 in 10.0 mi WSW 4.6 mph - N/A   Clear
9:35 PM 44.6 °F - 42.8 °F 93% 29.90 in 10.0 mi Calm Calm - N/A   Clear
9:55 PM 44.6 °F 42.2 °F 42.8 °F 93% 29.91 in 10.0 mi West 4.6 mph - N/A   Clear
10:15 PM 42.8 °F 39.3 °F 41.0 °F 93% 29.91 in 10.0 mi NW 5.8 mph - N/A   Partly Cloudy
10:35 PM 51.8 °F - 37.4 °F 58% 29.92 in 10.0 mi North 6.9 mph - N/A   Clear
11:15 PM 50.0 °F - 37.4 °F 62% 29.93 in 10.0 mi North 3.5 mph - N/A   Clear
11:35 PM 48.2 °F - 37.4 °F 66% 29.94 in 10.0 mi NNW 3.5 mph - N/A   Clear
11:55 PM 44.6 °F - 37.4 °F 76% 29.94 in 10.0 mi Calm Calm - N/A   Clear